Wetterdaten: Woche 14.11.16 - 20.11.16 (KW46)
Datum Zeit Temperatur Luftfeuchte Luftdruck Niederschlag Windrichtung Sonnenschein Solar Wind
14.11.2016 00:00 -0,1 C 91 % 1027,7 hPa 0,0 l/m O-NO 0,00 h 0 W/m 11,0 km/h (2 Bft)
14.11.2016 01:00 -0,5 C 91 % 1027,8 hPa 0,0 l/m O-NO 0,00 h 0 W/m 14,0 km/h (3 Bft)
14.11.2016 02:00 -0,9 C 91 % 1028,2 hPa 0,0 l/m O-NO 0,00 h 0 W/m 13,4 km/h (3 Bft)
14.11.2016 03:00 -1,1 C 92 % 1028,2 hPa 0,0 l/m O-NO 0,00 h 0 W/m 11,0 km/h (2 Bft)
14.11.2016 04:00 -1,2 C 92 % 1028,7 hPa 0,0 l/m O-NO 0,00 h 0 W/m 8,2 km/h (2 Bft)
14.11.2016 05:00 -1,3 C 93 % 1029,1 hPa 0,0 l/m O 0,00 h 0 W/m 9,7 km/h (2 Bft)
14.11.2016 06:00 -1,4 C 93 % 1029,5 hPa 0,0 l/m O-NO 0,00 h 0 W/m 5,5 km/h (1 Bft)
14.11.2016 07:00 -1,5 C 93 % 1030,2 hPa 0,0 l/m O 0,00 h 6 W/m 6,6 km/h (2 Bft)
14.11.2016 08:00 -1,7 C 93 % 1030,6 hPa 0,0 l/m O 0,00 h 16 W/m 5,5 km/h (1 Bft)
14.11.2016 09:00 -1,7 C 93 % 1031,3 hPa 0,0 l/m O 0,00 h 35 W/m 6,3 km/h (2 Bft)
14.11.2016 10:00 -1,4 C 92 % 1031,9 hPa 0,0 l/m O 0,00 h 52 W/m 5,2 km/h (1 Bft)
14.11.2016 11:00 -1,1 C 92 % 1031,9 hPa 0,0 l/m O 0,00 h 64 W/m 5,0 km/h (1 Bft)
14.11.2016 12:00 -0,9 C 91 % 1031,7 hPa 0,0 l/m O 0,00 h 60 W/m 2,4 km/h (1 Bft)
14.11.2016 13:00 -0,8 C 91 % 1031,5 hPa 0,0 l/m O 0,00 h 58 W/m 4,3 km/h (1 Bft)
14.11.2016 14:00 -0,8 C 90 % 1031,5 hPa 0,0 l/m O 0,00 h 43 W/m 5,3 km/h (1 Bft)
14.11.2016 15:00 -0,9 C 90 % 1031,6 hPa 0,0 l/m O 0,00 h 23 W/m 5,2 km/h (1 Bft)
14.11.2016 16:00 -1,0 C 90 % 1031,8 hPa 0,0 l/m O-SO 0,00 h 8 W/m 4,8 km/h (1 Bft)
14.11.2016 17:00 -1,2 C 90 % 1032,0 hPa 0,0 l/m N 0,00 h 0 W/m 0,9 km/h (0 Bft)
14.11.2016 18:00 -1,2 C 91 % 1032,0 hPa 0,0 l/m N 0,00 h 0 W/m 0,0 km/h (0 Bft)
14.11.2016 19:00 -1,1 C 91 % 1032,2 hPa 0,0 l/m N 0,00 h 0 W/m 0,3 km/h (0 Bft)
14.11.2016 20:00 -0,9 C 91 % 1032,7 hPa 0,0 l/m O-SO 0,00 h 0 W/m 3,9 km/h (1 Bft)
14.11.2016 21:00 -0,9 C 90 % 1032,9 hPa 0,0 l/m W-SW 0,00 h 0 W/m 4,4 km/h (1 Bft)
14.11.2016 22:00 -0,8 C 90 % 1032,6 hPa 0,0 l/m W 0,00 h 0 W/m 8,7 km/h (2 Bft)
14.11.2016 23:00 -0,8 C 90 % 1032,3 hPa 0,0 l/m W-SW 0,00 h 0 W/m 5,5 km/h (1 Bft)
15.11.2016 00:00 -0,7 C 91 % 1031,6 hPa 0,0 l/m N 0,00 h 0 W/m 0,1 km/h (0 Bft)
15.11.2016 01:00 -0,4 C 92 % 1031,3 hPa 0,0 l/m W-SW 0,00 h 0 W/m 5,3 km/h (1 Bft)
15.11.2016 02:00 -0,2 C 91 % 1031,1 hPa 0,0 l/m W-SW 0,00 h 0 W/m 9,3 km/h (2 Bft)
15.11.2016 03:00 -0,0 C 91 % 1030,8 hPa 0,0 l/m N 0,00 h 0 W/m 0,9 km/h (0 Bft)
15.11.2016 04:00 0,1 C 91 % 1031,3 hPa 0,0 l/m N 0,00 h 0 W/m 0,0 km/h (0 Bft)
15.11.2016 05:00 0,1 C 91 % 1031,6 hPa 0,0 l/m N 0,00 h 0 W/m 0,0 km/h (0 Bft)
15.11.2016 06:00 0,2 C 92 % 1031,4 hPa 0,0 l/m W-SW 0,00 h 0 W/m 2,5 km/h (1 Bft)
15.11.2016 07:00 0,3 C 92 % 1031,8 hPa 0,0 l/m W-SW 0,08 h 9 W/m 1,6 km/h (1 Bft)
15.11.2016 08:00 0,7 C 93 % 1031,9 hPa 0,0 l/m W-SW 0,25 h 67 W/m 7,9 km/h (2 Bft)
15.11.2016 09:00 1,7 C 91 % 1031,8 hPa 0,0 l/m SW 0,25 h 139 W/m 12,9 km/h (3 Bft)
15.11.2016 10:00 2,7 C 87 % 1031,5 hPa 0,0 l/m W-SW 0,25 h 163 W/m 16,2 km/h (3 Bft)
15.11.2016 11:00 3,5 C 86 % 1031,1 hPa 0,0 l/m W-SW 0,00 h 175 W/m 13,7 km/h (3 Bft)
15.11.2016 12:00 4,3 C 84 % 1030,4 hPa 0,0 l/m SW 0,08 h 189 W/m 14,1 km/h (3 Bft)
15.11.2016 13:00 4,8 C 82 % 1029,8 hPa 0,0 l/m SW 0,42 h 185 W/m 16,5 km/h (3 Bft)
15.11.2016 14:00 5,0 C 81 % 1029,5 hPa 0,0 l/m W-SW 0,00 h 91 W/m 13,3 km/h (3 Bft)
15.11.2016 15:00 4,7 C 85 % 1029,4 hPa 0,2 l/m W-SW 0,00 h 47 W/m 8,3 km/h (2 Bft)
15.11.2016 16:00 4,7 C 87 % 1029,4 hPa 0,0 l/m SW 0,00 h 10 W/m 3,9 km/h (1 Bft)
15.11.2016 17:00 4,2 C 91 % 1029,0 hPa 0,6 l/m S-SW 0,00 h 0 W/m 12,5 km/h (3 Bft)
15.11.2016 18:00 3,8 C 93 % 1029,6 hPa 0,4 l/m SW 0,00 h 0 W/m 5,2 km/h (1 Bft)
15.11.2016 19:00 3,8 C 95 % 1029,3 hPa 0,0 l/m SW 0,00 h 0 W/m 12,4 km/h (3 Bft)
15.11.2016 20:00 3,7 C 96 % 1029,3 hPa 0,0 l/m S-SW 0,00 h 0 W/m 14,1 km/h (3 Bft)
15.11.2016 21:00 3,6 C 96 % 1029,1 hPa 0,2 l/m SW 0,00 h 0 W/m 10,9 km/h (2 Bft)
15.11.2016 22:00 3,8 C 97 % 1028,3 hPa 0,2 l/m S-SW 0,00 h 0 W/m 11,6 km/h (2 Bft)
15.11.2016 23:00 4,1 C 97 % 1027,9 hPa 0,2 l/m SW 0,00 h 0 W/m 8,3 km/h (2 Bft)
16.11.2016 00:00 4,3 C 98 % 1027,4 hPa 0,2 l/m SW 0,00 h 0 W/m 4,3 km/h (1 Bft)
16.11.2016 01:00 4,4 C 98 % 1026,7 hPa 0,4 l/m S-SW 0,00 h 0 W/m 8,3 km/h (2 Bft)
16.11.2016 02:00 4,4 C 98 % 1026,4 hPa 0,2 l/m S-SW 0,00 h 0 W/m 5,6 km/h (1 Bft)
16.11.2016 03:00 4,5 C 98 % 1025,9 hPa 0,2 l/m S-SW 0,00 h 0 W/m 7,2 km/h (2 Bft)
16.11.2016 04:00 4,4 C 98 % 1025,4 hPa 0,8 l/m S-SW 0,00 h 0 W/m 8,3 km/h (2 Bft)
16.11.2016 05:00 4,4 C 98 % 1025,0 hPa 0,0 l/m S-SW 0,00 h 0 W/m 9,9 km/h (2 Bft)
16.11.2016 06:00 4,5 C 98 % 1024,5 hPa 0,2 l/m S-SW 0,00 h 0 W/m 11,8 km/h (2 Bft)
16.11.2016 07:00 4,5 C 98 % 1024,4 hPa 0,0 l/m S-SW 0,00 h 6 W/m 10,2 km/h (2 Bft)
16.11.2016 08:00 4,6 C 99 % 1024,1 hPa 0,0 l/m S-SW 0,00 h 27 W/m 9,1 km/h (2 Bft)
16.11.2016 09:00 5,0 C 99 % 1023,8 hPa 0,0 l/m S-SW 0,00 h 76 W/m 10,1 km/h (2 Bft)
16.11.2016 10:00 5,6 C 99 % 1023,4 hPa 0,0 l/m S-SW 0,00 h 71 W/m 10,1 km/h (2 Bft)
16.11.2016 11:00 6,1 C 99 % 1022,8 hPa 0,8 l/m S-SW 0,00 h 64 W/m 4,5 km/h (1 Bft)
16.11.2016 12:00 6,5 C 99 % 1021,8 hPa 0,6 l/m S 0,00 h 80 W/m 9,9 km/h (2 Bft)
16.11.2016 13:00 6,8 C 98 % 1020,9 hPa 0,6 l/m S-SW 0,00 h 67 W/m 13,2 km/h (3 Bft)
16.11.2016 14:00 6,9 C 99 % 1020,2 hPa 2,6 l/m SW 0,00 h 37 W/m 9,3 km/h (2 Bft)
16.11.2016 15:00 6,7 C 98 % 1019,8 hPa 1,2 l/m S-SW 0,00 h 20 W/m 9,3 km/h (2 Bft)
16.11.2016 16:00 6,6 C 99 % 1019,8 hPa 1,2 l/m S-SW 0,00 h 9 W/m 8,4 km/h (2 Bft)
16.11.2016 17:00 6,5 C 99 % 1019,5 hPa 0,2 l/m S-SW 0,00 h 0 W/m 10,6 km/h (2 Bft)
16.11.2016 18:00 6,4 C 99 % 1019,3 hPa 0,0 l/m S-SW 0,00 h 0 W/m 5,6 km/h (1 Bft)
16.11.2016 19:00 6,6 C 99 % 1019,2 hPa 0,0 l/m SW 0,00 h 0 W/m 6,7 km/h (2 Bft)
16.11.2016 20:00 6,8 C 99 % 1018,8 hPa 0,0 l/m W-SW 0,00 h 0 W/m 9,9 km/h (2 Bft)
16.11.2016 21:00 7,2 C 99 % 1018,5 hPa 0,0 l/m SW 0,00 h 0 W/m 17,0 km/h (3 Bft)
16.11.2016 22:00 7,6 C 99 % 1018,0 hPa 0,0 l/m SW 0,00 h 0 W/m 22,6 km/h (4 Bft)
16.11.2016 23:00 7,6 C 98 % 1017,5 hPa 0,0 l/m W-SW 0,00 h 0 W/m 22,6 km/h (4 Bft)
17.11.2016 00:00 7,5 C 98 % 1016,9 hPa 0,0 l/m SW 0,00 h 0 W/m 17,4 km/h (3 Bft)
17.11.2016 01:00 7,3 C 97 % 1016,4 hPa 0,0 l/m SW 0,00 h 0 W/m 10,8 km/h (2 Bft)
17.11.2016 02:00 7,1 C 98 % 1016,1 hPa 0,0 l/m SW 0,00 h 0 W/m 9,5 km/h (2 Bft)
17.11.2016 03:00 7,1 C 98 % 1015,8 hPa 0,6 l/m W-SW 0,00 h 0 W/m 17,6 km/h (3 Bft)
17.11.2016 04:00 7,2 C 98 % 1015,3 hPa 0,0 l/m SW 0,00 h 0 W/m 21,3 km/h (4 Bft)
17.11.2016 05:00 7,3 C 97 % 1014,9 hPa 0,0 l/m W-SW 0,00 h 0 W/m 21,3 km/h (4 Bft)
17.11.2016 06:00 7,3 C 97 % 1014,6 hPa 0,2 l/m W-SW 0,00 h 0 W/m 21,3 km/h (4 Bft)
17.11.2016 07:00 7,0 C 97 % 1014,6 hPa 0,2 l/m W-SW 0,00 h 7 W/m 20,1 km/h (4 Bft)
17.11.2016 08:00 7,2 C 97 % 1014,8 hPa 0,0 l/m W-SW 0,08 h 49 W/m 20,6 km/h (4 Bft)
17.11.2016 09:00 7,9 C 96 % 1014,6 hPa 0,0 l/m W-SW 0,08 h 116 W/m 22,0 km/h (4 Bft)
17.11.2016 10:00 8,6 C 94 % 1014,3 hPa 0,0 l/m W-SW 0,00 h 113 W/m 22,9 km/h (4 Bft)
17.11.2016 11:00 8,6 C 94 % 1014,2 hPa 0,0 l/m W-SW 0,00 h 102 W/m 20,9 km/h (4 Bft)
17.11.2016 12:00 8,8 C 94 % 1013,8 hPa 0,0 l/m SW 0,00 h 115 W/m 25,7 km/h (4 Bft)
17.11.2016 13:00 9,2 C 93 % 1013,5 hPa 0,0 l/m W-SW 0,08 h 154 W/m 26,1 km/h (4 Bft)
17.11.2016 14:00 9,5 C 93 % 1012,7 hPa 0,0 l/m SW 0,00 h 110 W/m 20,9 km/h (4 Bft)
17.11.2016 15:00 9,3 C 93 % 1012,0 hPa 0,0 l/m W-SW 0,00 h 63 W/m 20,8 km/h (4 Bft)
17.11.2016 16:00 9,0 C 94 % 1011,5 hPa 0,0 l/m W-SW 0,08 h 16 W/m 16,4 km/h (3 Bft)
17.11.2016 17:00 8,6 C 94 % 1011,0 hPa 0,0 l/m SW 0,00 h 0 W/m 13,6 km/h (3 Bft)
17.11.2016 18:00 8,1 C 95 % 1010,6 hPa 0,0 l/m SW 0,00 h 0 W/m 13,4 km/h (3 Bft)
17.11.2016 19:00 7,9 C 96 % 1010,4 hPa 0,0 l/m SW 0,00 h 0 W/m 12,5 km/h (3 Bft)
17.11.2016 20:00 7,9 C 96 % 1010,0 hPa 0,0 l/m SW 0,00 h 0 W/m 13,3 km/h (3 Bft)
17.11.2016 21:00 7,9 C 96 % 1009,9 hPa 0,0 l/m SW 0,00 h 0 W/m 13,7 km/h (3 Bft)
17.11.2016 22:00 7,5 C 96 % 1009,5 hPa 0,0 l/m SW 0,00 h 0 W/m 11,3 km/h (2 Bft)
17.11.2016 23:00 6,8 C 97 % 1008,8 hPa 0,0 l/m SW 0,00 h 0 W/m 11,3 km/h (2 Bft)
18.11.2016 00:00 6,0 C 97 % 1008,0 hPa 0,0 l/m SW 0,00 h 0 W/m 5,8 km/h (1 Bft)
18.11.2016 01:00 5,8 C 98 % 1007,4 hPa 0,0 l/m SW 0,00 h 0 W/m 9,1 km/h (2 Bft)
18.11.2016 02:00 6,7 C 98 % 1007,1 hPa 0,0 l/m W-SW 0,00 h 0 W/m 11,3 km/h (2 Bft)
18.11.2016 03:00 6,6 C 97 % 1006,3 hPa 0,0 l/m W-SW 0,00 h 0 W/m 6,1 km/h (2 Bft)
18.11.2016 04:00 6,6 C 96 % 1005,6 hPa 0,0 l/m SW 0,00 h 0 W/m 12,4 km/h (3 Bft)
18.11.2016 05:00 8,3 C 88 % 1005,7 hPa 0,0 l/m W 0,00 h 0 W/m 17,8 km/h (3 Bft)
18.11.2016 06:00 9,2 C 85 % 1005,7 hPa 0,0 l/m SW 0,00 h 0 W/m 10,7 km/h (2 Bft)
18.11.2016 07:00 9,1 C 88 % 1005,6 hPa 0,0 l/m W 0,08 h 13 W/m 17,8 km/h (3 Bft)
18.11.2016 08:00 10,4 C 87 % 1005,5 hPa 0,4 l/m W 0,00 h 9 W/m 20,6 km/h (4 Bft)
18.11.2016 09:00 10,2 C 91 % 1005,6 hPa 0,6 l/m W 0,00 h 35 W/m 31,9 km/h (5 Bft)
18.11.2016 10:00 10,7 C 90 % 1004,9 hPa 0,0 l/m W-SW 0,17 h 148 W/m 27,9 km/h (4 Bft)
18.11.2016 11:00 11,3 C 85 % 1004,7 hPa 0,0 l/m W-NW 0,00 h 101 W/m 31,8 km/h (5 Bft)
18.11.2016 12:00 11,2 C 87 % 1005,0 hPa 0,0 l/m W 0,00 h 77 W/m 33,9 km/h (5 Bft)
18.11.2016 13:00 10,5 C 89 % 1005,0 hPa 0,8 l/m W 0,00 h 37 W/m 37,7 km/h (5 Bft)
18.11.2016 14:00 10,3 C 89 % 1005,1 hPa 0,6 l/m W 0,00 h 41 W/m 32,3 km/h (5 Bft)
18.11.2016 15:00 10,4 C 88 % 1004,8 hPa 0,0 l/m SW 0,00 h 23 W/m 25,5 km/h (4 Bft)
18.11.2016 16:00 10,5 C 87 % 1005,5 hPa 0,4 l/m W 0,00 h 12 W/m 22,5 km/h (4 Bft)
18.11.2016 17:00 8,2 C 89 % 1007,1 hPa 0,6 l/m W-NW 0,00 h 0 W/m 14,5 km/h (3 Bft)
18.11.2016 18:00 7,2 C 93 % 1008,4 hPa 1,4 l/m W 0,00 h 0 W/m 13,3 km/h (3 Bft)
18.11.2016 19:00 6,8 C 95 % 1008,9 hPa 0,0 l/m W 0,00 h 0 W/m 5,3 km/h (1 Bft)
18.11.2016 20:00 6,4 C 95 % 1009,0 hPa 1,2 l/m SW 0,00 h 0 W/m 9,9 km/h (2 Bft)
18.11.2016 21:00 6,1 C 95 % 1009,9 hPa 0,4 l/m W-SW 0,00 h 0 W/m 10,6 km/h (2 Bft)
18.11.2016 22:00 5,7 C 96 % 1010,4 hPa 0,4 l/m SW 0,00 h 0 W/m 11,7 km/h (2 Bft)
18.11.2016 23:00 5,5 C 96 % 1010,2 hPa 0,6 l/m SW 0,00 h 0 W/m 14,2 km/h (3 Bft)
19.11.2016 00:00 5,2 C 97 % 1009,8 hPa 0,2 l/m SW 0,00 h 0 W/m 12,0 km/h (2 Bft)
19.11.2016 01:00 5,3 C 97 % 1009,4 hPa 0,4 l/m SW 0,00 h 0 W/m 13,2 km/h (3 Bft)
19.11.2016 02:00 5,3 C 98 % 1008,9 hPa 0,4 l/m S-SW 0,00 h 0 W/m 11,2 km/h (2 Bft)
19.11.2016 03:00 5,3 C 98 % 1008,2 hPa 1,0 l/m S-SW 0,00 h 0 W/m 7,2 km/h (2 Bft)
19.11.2016 04:00 5,2 C 98 % 1007,8 hPa 1,2 l/m S-SW 0,00 h 0 W/m 4,6 km/h (1 Bft)
19.11.2016 05:00 5,3 C 98 % 1007,9 hPa 0,8 l/m S-SW 0,00 h 0 W/m 8,4 km/h (2 Bft)
19.11.2016 06:00 5,3 C 99 % 1007,5 hPa 0,4 l/m S-SW 0,00 h 0 W/m 1,5 km/h (1 Bft)
19.11.2016 07:00 5,3 C 99 % 1007,1 hPa 0,2 l/m S-SW 0,00 h 0 W/m 5,1 km/h (1 Bft)
19.11.2016 08:00 5,5 C 99 % 1007,0 hPa 1,0 l/m S-SW 0,00 h 9 W/m 9,5 km/h (2 Bft)
19.11.2016 09:00 5,5 C 99 % 1006,9 hPa 0,4 l/m S-SW 0,00 h 27 W/m 8,3 km/h (2 Bft)
19.11.2016 10:00 6,0 C 99 % 1008,0 hPa 0,4 l/m W-SW 0,00 h 55 W/m 14,8 km/h (3 Bft)
19.11.2016 11:00 5,6 C 98 % 1009,1 hPa 0,2 l/m W-SW 0,00 h 52 W/m 26,6 km/h (4 Bft)
19.11.2016 12:00 4,9 C 96 % 1010,0 hPa 0,4 l/m W-SW 0,00 h 38 W/m 25,6 km/h (4 Bft)
19.11.2016 13:00 4,5 C 95 % 1010,6 hPa 0,4 l/m W-SW 0,00 h 42 W/m 20,5 km/h (4 Bft)
19.11.2016 14:00 4,3 C 95 % 1011,0 hPa 0,2 l/m W-SW 0,00 h 39 W/m 14,0 km/h (3 Bft)
19.11.2016 15:00 4,3 C 95 % 1011,4 hPa 0,0 l/m SW 0,08 h 39 W/m 13,2 km/h (3 Bft)
19.11.2016 16:00 4,3 C 95 % 1011,8 hPa 0,0 l/m SW 0,50 h 27 W/m 10,6 km/h (2 Bft)
19.11.2016 17:00 3,5 C 95 % 1012,3 hPa 0,0 l/m SW 0,00 h 0 W/m 4,5 km/h (1 Bft)
19.11.2016 18:00 2,5 C 95 % 1012,5 hPa 0,0 l/m N 0,00 h 0 W/m 0,0 km/h (0 Bft)
19.11.2016 19:00 2,0 C 95 % 1012,6 hPa 0,0 l/m N 0,00 h 0 W/m 0,3 km/h (0 Bft)
19.11.2016 20:00 1,3 C 95 % 1012,1 hPa 0,0 l/m N 0,00 h 0 W/m 0,0 km/h (0 Bft)
19.11.2016 21:00 0,7 C 96 % 1011,6 hPa 0,0 l/m N 0,00 h 0 W/m 0,0 km/h (0 Bft)
19.11.2016 22:00 0,4 C 96 % 1011,1 hPa 0,0 l/m N 0,00 h 0 W/m 0,0 km/h (0 Bft)
19.11.2016 23:00 -0,1 C 96 % 1010,8 hPa 0,0 l/m N 0,00 h 0 W/m 0,0 km/h (0 Bft)
20.11.2016 00:00 -0,3 C 96 % 1010,6 hPa 0,0 l/m N 0,00 h 0 W/m 0,0 km/h (0 Bft)
20.11.2016 01:00 -0,7 C 96 % 1009,8 hPa 0,0 l/m N 0,00 h 0 W/m 0,0 km/h (0 Bft)
20.11.2016 02:00 -0,7 C 97 % 1008,9 hPa 0,0 l/m SW 0,00 h 0 W/m 0,8 km/h (0 Bft)
20.11.2016 03:00 0,0 C 97 % 1007,9 hPa 0,0 l/m W-NW 0,00 h 0 W/m 3,1 km/h (1 Bft)
20.11.2016 04:00 0,2 C 97 % 1007,3 hPa 0,0 l/m NW 0,00 h 0 W/m 4,8 km/h (1 Bft)
20.11.2016 05:00 -0,1 C 98 % 1006,7 hPa 0,0 l/m N-NW 0,00 h 0 W/m 4,0 km/h (1 Bft)
20.11.2016 06:00 -0,2 C 98 % 1006,6 hPa 0,0 l/m N 0,00 h 0 W/m 0,8 km/h (0 Bft)
20.11.2016 07:00 -0,4 C 98 % 1007,2 hPa 0,0 l/m N-NW 0,00 h 9 W/m 0,5 km/h (0 Bft)
20.11.2016 08:00 -0,5 C 98 % 1007,4 hPa 0,0 l/m N 0,00 h 46 W/m 0,0 km/h (0 Bft)
20.11.2016 09:00 -0,2 C 98 % 1007,6 hPa 0,0 l/m N 0,42 h 134 W/m 0,0 km/h (0 Bft)
20.11.2016 10:00 0,9 C 98 % 1007,8 hPa 0,2 l/m N 0,25 h 167 W/m 0,5 km/h (0 Bft)
20.11.2016 11:00 2,8 C 98 % 1008,1 hPa 0,0 l/m N 0,83 h 243 W/m 0,0 km/h (0 Bft)
20.11.2016 12:00 5,9 C 92 % 1008,2 hPa 0,0 l/m W 1,00 h 304 W/m 2,4 km/h (1 Bft)
20.11.2016 13:00 8,5 C 84 % 1007,8 hPa 0,0 l/m SO 1,00 h 284 W/m 6,0 km/h (2 Bft)
20.11.2016 14:00 9,5 C 82 % 1007,4 hPa 0,0 l/m S 1,00 h 185 W/m 4,9 km/h (1 Bft)
20.11.2016 15:00 8,8 C 84 % 1007,5 hPa 0,0 l/m S 0,08 h 70 W/m 1,6 km/h (1 Bft)
20.11.2016 16:00 7,2 C 88 % 1007,8 hPa 0,0 l/m S 0,33 h 18 W/m 0,7 km/h (0 Bft)
20.11.2016 17:00 5,7 C 88 % 1008,2 hPa 0,0 l/m N 0,00 h 0 W/m 0,0 km/h (0 Bft)
20.11.2016 18:00 4,0 C 90 % 1008,4 hPa 0,0 l/m S 0,00 h 0 W/m 0,7 km/h (0 Bft)
20.11.2016 19:00 2,7 C 92 % 1008,4 hPa 0,0 l/m N 0,00 h 0 W/m 0,4 km/h (0 Bft)
20.11.2016 20:00 1,9 C 93 % 1008,2 hPa 0,0 l/m N 0,00 h 0 W/m 0,5 km/h (0 Bft)
20.11.2016 21:00 1,5 C 94 % 1008,4 hPa 0,0 l/m S-SW 0,00 h 0 W/m 1,5 km/h (1 Bft)
20.11.2016 22:00 1,5 C 96 % 1008,1 hPa 0,0 l/m W-SW 0,00 h 0 W/m 3,2 km/h (1 Bft)
20.11.2016 23:00 1,7 C 96 % 1008,0 hPa 0,0 l/m N 0,00 h 0 W/m 0,5 km/h (0 Bft)
Min-Datum _ 14.11.16 15.11.16 18.11.16 - - - - 14.11.16
_ Min-Zeit 08:25 14:15 10:50 - - - - 06:50
Minimum _ -1,8 C 80 % 1004,5 hPa - - - - 0,0 km/h (0 Bft)
Max-Datum _ 18.11.16 16.11.16 14.11.16 16.11.16 - 15.11.16 20.11.16 18.11.16
_ Max-Zeit 10:55 08:30 21:10 14:20 - 07:40 12:40 13:45
Maximum _ 11,4 C 99 % 1033,2 hPa 2,6 l/m - 0,08 h 332 W/m 53,1 km/h
W (7 Bft)
Durchschnitt _ 4,3 C 94 % 1017,3 hPa #27,2 l/m SW #7:25 h 73 W/m 10,1 km/h (2 Bft)